Showing default

EXPLORER 25 (INJUN-4), 932

Orbit data source: Space-Track

EXPLORER 25 (INJUN-4), 932 is a payload satellite owned by NASA LaRC (US) in LEO that was launched on Sat, 21 Nov 1964 UTC via an SCOUT X-4 launch vehicle from the Air Force Western Test Range (AFWTR). Payload-class satellites include a variety of spacecraft equipped with specific instruments for various scientific and technological missions. These include communications satellites like Starlink; space stations such as the ISS; scientific satellites like the Hubble; Earth observation satellites from companies like Planet Labs, Umbra, and HawkEye 360; GPS; miniature CubeSats for education and research; and military/defense satellites.

Loading next visibility...
Identifier
932, 1964-076B
Orbit
LEO
Country
Flag of USUS
Related business
Manufacturer
BENDX/UIA
Mission
Civil Science
Bus & Motor
BENDIX UTILITY, Unknown motor
Mass
41 kg wet, 41 kg dry
Launch date (UTC)
1964-11-21 (61 years ago)
Launch vehicle
SCOUT X-4
Launch site
Air Force Western Test Range (AFWTR)
Object type
Payload
Rocket body
Debris
Shape & HBR
Poly, 0.3 m
Radar Cross Section
0.411 m², Medium (>0.1 m² and < 1m²)

Expand to show TLE details & history
Last TLE update: 21 hours ago

TLE from 21 hours ago
0 EXPLORER 25 (INJUN-4)
1 00932U 64076B   25257.31538443  .00000261  00000-0  86776-4 0  9996
2 00932  81.3375 230.7250 1119929 173.8653 187.7605 12.66808432784190
Epoch: 2025-09-14T07:34Z
TLE epoch observation values (Epoch: 2025-09-14T07:34:09.214Z)
Latitude
-0.00002°
Longitude
123.65045°
Altitude
2,261.955 km
Speed
6.405 km/s
True Right ascension
15h 22m 53s
True Declination
0° 00' 00"
Sunlit
Object was in daylight at epoch
Visualization orbit readout
Latitude
Unknown
Longitude
Unknown
Altitude
Unknown
Speed
Unknown
Apparent Right ascension
Unknown
Apparent Declination
Unknown
Sunlit
N/A
Visualization observer readout
Local Sidereal Time
21:08:54
Azimuth
Unknown
Elevation
Unknown
Doppler factor
Unknown
Orbital elements
Apogee altitude
2,262.515 km
Perigee altitude
522.051 km
Semi-major axis
7,770.42 km
Eccentricity
0.11199
Inclination
81.3375°
RAAN
230.725°
Arg. of periapsis
173.8653°
True anomaly
186.23966°
Mean anomaly
187.7605°
Eccentric anomaly
186.98065°
Mean motion
3.16867 °/min
Orbital period
113.61 mins
BSTAR
0.000086776
Loading maneuver chart data...
Computing Atmospheric mass density...
Loading historical data...
Loading historical data...
Loading historical data...
Loading historical data...
Loading historical data...
Loading historical data...
Loading historical data...

Documentation

Showing up to 5 results
|